Regional Weather Roundup
Issued by NWS

Home | Current Version | Previous Version | Graphics & Text | Print | Product List | Glossary On
Versions: 1 2 3 4 5 6 7 8 9 10 11 12 13 14 15 16 17 18 19 20 21 22 23 24 25 26 27 28 29 30 31 32 33 34 35 36 37 38 39 40 41 42 43 44 45 46 47 48 49 50
000
ASUS43 KMPX 270310
RWRMN
WEATHER ROUNDUP FOR MINNESOTA
NATIONAL WEATHER SERVICE TWIN CITIES/CHANHASSEN MN
1000 PM CDT THU MAR 26 2015


NOTE: "FAIR" INDICATES FEW OR NO CLOUDS BELOW 12,000 FEET WITH NO
SIGNIFICANT WEATHER AND/OR OBSTRUCTIONS TO VISIBILITY. N/A MEANS
CURRENT SKY AND/OR WEATHER CONDITIONS ARE NOT AVAILABLE.

MNZ060>063-068>070-270400-
   Twin Cities Metro

CITY           SKY/WX    TMP DP  RH WIND       PRES   REMARKS
TWIN CITIES    CLEAR     29   8  41 N8        30.19R WCI  21
ST PAUL        CLEAR     27   8  44 NW8       30.20R WCI  19
CRYSTAL        CLEAR     29   8  41 N7        30.18R WCI  22
BLAINE         CLEAR     28  10  47 N8        30.19R WCI  20
LAKEVILLE      CLEAR     21  10  63 NW6       30.18R WCI  14
EDEN PRAIRIE   CLEAR     28   8  43 N6        30.17R WCI  22
SOUTH ST PAUL  CLEAR     29   8  40 N6        30.18R WCI  23
LAKE ELMO      FAIR      28  10  47 N3        30.19R
$$
MNZ001>005-007-008-013>017-022>024-027-028-270400-
   Northwest Minnesota

CITY           SKY/WX    TMP DP  RH WIND       PRES   REMARKS
BEMIDJI        CLEAR     17  -1  44 CALM      30.24R
HALLOCK        CLEAR     21  10  63 NE5       30.31S WCI  15
ROSEAU         FAIR      21  10  63 N7        30.29R WCI  13
WARROAD        FAIR      19  10  68 N5        30.29R WCI  13
THIEF RVR FALL CLEAR     21   7  53 N9        30.29S WCI  11
CROOKSTON      CLEAR     21  12  68 N6        30.31S WCI  14
FOSSTON        CLEAR     18  10  73 NW7       30.27R WCI   8
DETROIT LAKES  CLEAR     23  14  68 N7        30.26R WCI  15
MOORHEAD       CLEAR     19   9  63 N7        30.30S WCI  10
PARK RAPIDS    CLEAR     20   1  43 N7        30.22R WCI  11
MAHNOMEN       FAIR      20  12  71 NW7       30.26S WCI  12
$$
MNZ006-009>011-018-025>026-270400-
   North Central Minnesota

CITY           SKY/WX    TMP DP  RH WIND       PRES   REMARKS
BAUDETTE       CLEAR     18   5  57 N6        30.26R WCI  10
FLAG ISLAND    CLEAR     18   9  68 CALM      30.27S
INTL FALLS     CLEAR     19   1  45 N6        30.24R WCI  11
WASKISH        CLEAR     18   5  57 CALM      30.26R
BIG FORK       CLEAR     19   1  45 CALM      30.23R
LONGVILLE      CLEAR     21  -2  35 N5        30.23R WCI  15
GRAND RAPIDS   CLEAR     21   0  39 N9        30.20R WCI  11
CRANE LAKE     CLEAR     16   0  48 CALM      30.26R
ORR            CLEAR     12   0  57 CALM      30.20R
COOK           CLEAR     18   0  45 CALM      30.22R
WALKER         FAIR      20  -3  36 N3        30.23R
$$
MNZ012-019>021-037-270400-
   Northeast Minnesota

CITY           SKY/WX    TMP DP  RH WIND       PRES   REMARKS
DULUTH         FAIR      21   1  41 N8        30.17R WCI  11
ELY            CLEAR     16   0  48 N3        30.19S
HIBBING        CLEAR     19  -2  39 N8        30.20R WCI   9
EVELETH        CLEAR     21  -4  33 N3        30.20S
DULUTH HARBOR  FAIR      27   5  39 N17       30.23R WCI  14
TWO HARBORS    CLEAR     23   3  42 CALM      30.19R
SILVER BAY     CLEAR     19   1  45 CALM      30.19R
GRAND MARAIS     N/A     20   3  48 CALM      30.23R
G MARAIS ARPRT CLEAR     10   0  61 N8        30.14R WCI  -1
$$
MNZ029>031-032-039>041-046>048-054>057-064-270400-
   West Central Minnesota

CITY           SKY/WX    TMP DP  RH WIND       PRES   REMARKS
FERGUS FALLS   CLEAR     19   9  63 N7        30.30R WCI  10
WHEATON        CLEAR     21  10  63 NW6       30.30R WCI  14
MORRIS         CLEAR     25  14  63 N13       30.25R WCI  13
ALEXANDRIA     CLEAR     24  11  57 N9        30.23R WCI  14
ELBOW LAKE     FAIR      23  11  61 N8        30.25S WCI  14
WADENA         CLEAR     19  10  68 N6        30.23R WCI  11
GLENWOOD       CLEAR     25  14  63 NW12      30.22R WCI  14
APPLETON       CLEAR     27  16  63 N10       30.26R WCI  17
BENSON         FAIR      23  16  74 N7        30.25R WCI  15
ORTONVILLE     CLEAR     27  12  54 N13       30.26R WCI  16
MADISON        CLEAR     27  16  63 N9        30.27R WCI  17
WILLMAR        FAIR      27  14  59 NW12      30.23R WCI  16
$$
MNZ033>034-036-042>043-049>051-058-059-270400-
   Central Minnesota

CITY           SKY/WX    TMP DP  RH WIND       PRES   REMARKS
ST CLOUD       CLEAR     26   7  44 N8        30.20R WCI  18
SAUK CENTRE    FAIR      24   6  47 N5        30.22R WCI  18
PAYNESVILLE    CLEAR     23  10  56 NW7       30.21R WCI  14
AITKIN         CLEAR     25   9  50 NW3       30.19R
PINE RIVER     CLEAR     23   1  39 N8        30.25R WCI  14
BRAINERD       CLEAR     24   2  38 N12       30.22R WCI  13
STAPLES        CLEAR     23  -2  33 N7        30.22R WCI  15
LONG PRAIRIE   FAIR      25   3  39 N6        30.22R WCI  18
LITTLE FALLS   CLEAR     27   0  31 N6        30.22R WCI  20
LITCHFIELD     CLEAR     25  12  58 N5        30.21R WCI  19
BUFFALO        CLEAR     27   9  46 N6        30.21R WCI  20
MAPLE LAKE     CLEAR     27  11  52 N7        30.21R WCI  19
$$
MNZ037-044-045-052-053-270400-
   East Central Minnesota

CITY           SKY/WX    TMP DP  RH WIND       PRES   REMARKS
PRINCETON      CLEAR     27  10  50 NW6       30.19S WCI  20
MORA           CLEAR     27   7  43 CALM      30.21R
CAMBRIDGE      CLEAR     28  12  50 NW3       30.18R
RUSH CITY      CLEAR     23  10  55 N3        30.20R
MOOSE LAKE     CLEAR     23   1  39 CALM      30.18R
HINCKLEY       FAIR      27   3  36 N8G16     30.19R WCI  18
CLOQUET        CLEAR     21  -2  35 N6        30.19R WCI  14
MCGREGOR       CLEAR     25   3  39 N7        30.20R WCI  17
$$
MNZ071>073-080-081-089-090-097-098-270400-
   Southwest Minnesota

CITY           SKY/WX    TMP DP  RH WIND       PRES   REMARKS
MONTEVIDEO     CLEAR     27  18  69 N12       30.25R WCI  16
GRANITE FALLS  CLEAR     26  15  62 NW8       30.25R WCI  18
CANBY          CLEAR     26  15  64 N8        30.26S WCI  17
MARSHALL       CLEAR     25  14  63 N7        30.24R WCI  17
REDWOOD FALLS  CLEAR     27  17  66 NW8       30.22R WCI  19
OLIVIA         CLEAR     27  19  74 NW10      30.21R WCI  17
PIPESTONE      CLEAR     27  16  63 N6        30.21R WCI  20
WINDOM         CLEAR     21  18  86 NW7       30.20R WCI  13
WORTHINGTON    CLEAR     21  12  68 N8        30.21R WCI  12
JACKSON        CLEAR     27  19  74 NW9       30.20R WCI  17
TRACY          CLEAR     25  19  76 N6        30.22R WCI  18
SLAYTON        CLEAR     24  16  73 CALM      30.21R
$$
MNZ065>067-074>077-082>085-091>093-270400-
   South Central Minnesota

CITY           SKY/WX    TMP DP  RH WIND       PRES   REMARKS
MANKATO        CLEAR     27  16  63 NW9       30.19R WCI  17
NEW ULM        CLEAR     27  18  69 NW9       30.20R WCI  17
ST JAMES       CLEAR     28  19  69 NW8       30.21S WCI  20
FAIRMONT       CLOUDY    28  10  47 NW12      30.18R WCI  18
GLENCOE        CLEAR     23  18  80 NW6       30.20R WCI  16
FARIBAULT      CLEAR     25  16  68 NW5       30.18R WCI  19
OWATONNA       MOCLDY    27  19  74 NW9       30.16R WCI  17
WASECA         CLEAR     25  18  74 NW10      30.19R WCI  15
ALBERT LEA     CLOUDY    28  19  69 NW8       30.16R WCI  20
$$
MNZ078>079-086>088-094>096-270400-
   Southeast Minnesota

CITY           SKY/WX    TMP DP  RH WIND       PRES   REMARKS
ROCHESTER      CLOUDY    27  18  69 NW14      30.13R WCI  16
RED WING       CLEAR     28   9  43 N3        30.16R
STANTON        CLEAR     28  11  50 N10       30.16R WCI  18
DODGE CENTER   MOCLDY    27  18  69 NW10      30.14R WCI  17
WINONA         PTCLDY    30  19  64 NW6       30.15R WCI  24
AUSTIN         CLOUDY    28  19  69 NW8       30.14R WCI  20
PRESTON        CLOUDY    28  19  69 N5        30.13R WCI  23
$$
ABBREVIATIONS USED IN REMARKS
   TC - TEMPERATURES IN CELSIUS
  WCI - WIND CHILL INDEX
   HX - HEAT INDEX
  VSB - VISIBILITY
$$


USA.gov is the U.S. government's official web portal to all federal, state and local government web resources and services.